Location: Cazarilh
(42.9578°N, 0.5819°E)
Time: 04:53:36
(UTC+00:00)

Cosmos 1833 Rocket - Pass Details

Date: 11 December 2019
Orbit: 831 x 841 km, 71.0° (Epoch: 28 January)

Event Time Altitude Azimuth Distance (km) Brightness Sun altitude
Rises 06:41:25 0° 343° (NNW) 3,398 5.4 -6.8°
Reaches altitude 10° 06:44:17 10° 356° (N) 2,462 4.8 -6.3°
Maximum altitude 06:48:58 26° 52° (NE) 1,596 4.5 -5.5°
Drops below altitude 10° 06:53:38 10° 109° (ESE) 2,455 7.0 -4.8°
Sets 06:56:28 0° 122° (ESE) 3,387 8.8 -4.3°
